| time (UTC) | temp C | wind direction | speed KPH | gust KPH | rain 1hr cm | rain 24hr cm | rain mn cm | humidity % | barometer mb |
| 20260505235503 | 12 | 355 | 4.8 | 14.5 | 0.00 | 0.10 | 0.03 | 40 | 1012.1 |
| 20260505235005 | 12 | 4 | 4.8 | 17.7 | 0.00 | 0.10 | 0.03 | 39 | 1012.1 |
| 20260505234508 | 12 | 10 | 4.8 | 22.5 | 0.00 | 0.10 | 0.03 | 39 | 1012.1 |
| 20260505234003 | 12 | 3 | 4.8 | 22.5 | 0.00 | 0.10 | 0.03 | 38 | 1012.1 |
| 20260505233504 | 12 | 343 | 6.4 | 22.5 | 0.00 | 0.10 | 0.03 | 38 | 1012.0 |
| 20260505233008 | 13 | 349 | 6.4 | 20.9 | 0.00 | 0.10 | 0.03 | 39 | 1011.9 |
| 20260505232504 | 13 | 5 | 6.4 | 22.5 | 0.00 | 0.10 | 0.03 | 39 | 1011.9 |
| 20260505232003 | 13 | 357 | 4.8 | 22.5 | 0.00 | 0.10 | 0.03 | 38 | 1011.9 |
| 20260505231508 | 13 | 354 | 4.8 | 14.5 | 0.00 | 0.10 | 0.03 | 40 | 1011.8 |
| 20260505231003 | 13 | 357 | 8.0 | 24.1 | 0.00 | 0.10 | 0.03 | 40 | 1011.8 |
| 20260505230009 | 13 | 351 | 6.4 | 19.3 | 0.00 | 0.10 | 0.03 | 38 | 1011.8 |
| 20260505225504 | 13 | 350 | 4.8 | 14.5 | 0.00 | 0.10 | 0.03 | 37 | 1011.8 |
| 20260505225003 | 14 | 345 | 4.8 | 14.5 | 0.00 | 0.10 | 0.03 | 38 | 1011.7 |
| 20260505224508 | 14 | 336 | 3.2 | 14.5 | 0.00 | 0.10 | 0.03 | 38 | 1011.6 |
| 20260505223503 | 14 | 332 | 3.2 | 12.9 | 0.00 | 0.10 | 0.03 | 39 | 1011.6 |
| 20260505223008 | 14 | 341 | 4.8 | 14.5 | 0.00 | 0.10 | 0.03 | 38 | 1011.7 |
| 20260505222504 | 14 | 7 | 4.8 | 20.9 | 0.00 | 0.10 | 0.03 | 38 | 1011.6 |
| 20260505222004 | 14 | 6 | 6.4 | 20.9 | 0.00 | 0.10 | 0.03 | 38 | 1011.6 |
| 20260505221508 | 13 | 353 | 6.4 | 19.3 | 0.00 | 0.10 | 0.03 | 39 | 1011.5 |
| 20260505220503 | 14 | 341 | 4.8 | 17.7 | 0.00 | 0.10 | 0.03 | 39 | 1011.5 |
| 20260505220008 | 14 | 324 | 3.2 | 14.5 | 0.00 | 0.10 | 0.03 | 39 | 1011.4 |
| 20260505215505 | 14 | 318 | 4.8 | 14.5 | 0.00 | 0.10 | 0.03 | 40 | 1011.6 |
| 20260505215003 | 13 | 320 | 4.8 | 14.5 | 0.00 | 0.10 | 0.03 | 39 | 1011.5 |
| 20260505214508 | 14 | 324 | 4.8 | 11.3 | 0.00 | 0.10 | 0.03 | 40 | 1011.6 |
| 20260505214003 | 14 | 342 | 4.8 | 19.3 | 0.00 | 0.10 | 0.03 | 40 | 1011.6 |
| 20260505213503 | 13 | 351 | 6.4 | 19.3 | 0.00 | 0.10 | 0.03 | 40 | 1011.6 |
| 20260505213009 | 13 | 352 | 4.8 | 16.1 | 0.00 | 0.10 | 0.03 | 40 | 1011.7 |
| 20260505212503 | 14 | 341 | 3.2 | 16.1 | 0.00 | 0.10 | 0.03 | 40 | 1011.8 |
| 20260505212003 | 14 | 330 | 1.6 | 12.9 | 0.00 | 0.10 | 0.03 | 40 | 1011.9 |
| 20260505211508 | 13 | 331 | 3.2 | 11.3 | 0.00 | 0.10 | 0.03 | 41 | 1011.9 |
| 20260505211003 | 13 | 340 | 4.8 | 12.9 | 0.00 | 0.10 | 0.03 | 40 | 1012.0 |
| 20260505210504 | 14 | 343 | 3.2 | 12.9 | 0.00 | 0.10 | 0.03 | 40 | 1012.0 |
| 20260505210009 | 14 | 341 | 3.2 | 11.3 | 0.00 | 0.10 | 0.03 | 41 | 1012.1 |
| 20260505205503 | 14 | 9 | 6.4 | 19.3 | 0.00 | 0.10 | 0.03 | 41 | 1012.1 |
| 20260505205004 | 14 | 11 | 8.0 | 19.3 | 0.00 | 0.10 | 0.03 | 40 | 1012.2 |
| 20260505204508 | 14 | 350 | 6.4 | 19.3 | 0.00 | 0.10 | 0.03 | 40 | 1012.3 |
| 20260505204003 | 14 | 335 | 6.4 | 16.1 | 0.00 | 0.10 | 0.03 | 39 | 1012.2 |
| 20260505203504 | 15 | 348 | 6.4 | 14.5 | 0.00 | 0.10 | 0.03 | 39 | 1012.1 |
| 20260505202503 | 15 | 321 | 4.8 | 17.7 | 0.00 | 0.10 | 0.03 | 39 | 1012.2 |
| 20260505202003 | 15 | 300 | 3.2 | 12.9 | 0.00 | 0.10 | 0.03 | 38 | 1012.3 |
| 20260505201508 | 15 | 295 | 3.2 | 11.3 | 0.00 | 0.10 | 0.03 | 40 | 1012.3 |
| 20260505200503 | 15 | 356 | 4.8 | 16.1 | 0.00 | 0.10 | 0.03 | 38 | 1012.4 |
| 20260505200008 | 15 | 355 | 4.8 | 17.7 | 0.00 | 0.10 | 0.03 | 39 | 1012.2 |
| 20260505195503 | 15 | 347 | 3.2 | 17.7 | 0.00 | 0.10 | 0.03 | 40 | 1012.4 |
| 20260505194508 | 14 | 357 | 4.8 | 14.5 | 0.00 | 0.10 | 0.03 | 42 | 1012.4 |
| 20260505194005 | 15 | 357 | 3.2 | 14.5 | 0.00 | 0.10 | 0.03 | 41 | 1012.4 |
| 20260505193503 | 14 | 351 | 4.8 | 14.5 | 0.00 | 0.10 | 0.03 | 41 | 1012.6 |
| 20260505193009 | 14 | 342 | 4.8 | 17.7 | 0.00 | 0.10 | 0.03 | 40 | 1012.6 |
| 20260505192504 | 14 | 339 | 4.8 | 19.3 | 0.00 | 0.10 | 0.03 | 41 | 1012.7 |
| 20260505192003 | 14 | 330 | 4.8 | 19.3 | 0.00 | 0.10 | 0.03 | 40 | 1012.7 |
| 20260505191508 | 14 | 320 | 3.2 | 12.9 | 0.00 | 0.10 | 0.03 | 41 | 1012.7 |
| 20260505190503 | 14 | 9 | 4.8 | 14.5 | 0.00 | 0.10 | 0.03 | 44 | 1012.7 |
| 20260505190008 | 13 | 19 | 4.8 | 14.5 | 0.00 | 0.10 | 0.03 | 41 | 1012.7 |
| 20260505185504 | 13 | 8 | 3.2 | 14.5 | 0.00 | 0.10 | 0.03 | 41 | 1012.8 |
| 20260505185003 | 13 | 337 | 3.2 | 12.9 | 0.00 | 0.10 | 0.03 | 43 | 1012.9 |
| 20260505184508 | 13 | 2 | 3.2 | 14.5 | 0.00 | 0.10 | 0.03 | 44 | 1012.8 |
| 20260505184003 | 13 | 18 | 3.2 | 14.5 | 0.00 | 0.10 | 0.03 | 46 | 1012.9 |
| 20260505183505 | 13 | 21 | 3.2 | 9.7 | 0.00 | 0.10 | 0.03 | 44 | 1012.8 |
| 20260505182504 | 13 | 355 | 4.8 | 14.5 | 0.00 | 0.10 | 0.03 | 44 | 1012.9 |
| 20260505182003 | 13 | 354 | 3.2 | 11.3 | 0.00 | 0.10 | 0.03 | 44 | 1013.1 |
| 20260505181508 | 13 | 354 | 1.6 | 11.3 | 0.00 | 0.10 | 0.03 | 45 | 1013.1 |
| 20260505181005 | 13 | 166 | 1.6 | 4.8 | 0.00 | 0.10 | 0.03 | 47 | 1013.2 |
| 20260505180503 | 13 | 200 | 1.6 | 6.4 | 0.00 | 0.10 | 0.03 | 47 | 1013.1 |
| 20260505175503 | 13 | 336 | 1.6 | 11.3 | 0.00 | 0.10 | 0.03 | 48 | 1013.3 |
| 20260505175003 | 13 | 341 | 3.2 | 11.3 | 0.00 | 0.10 | 0.03 | 47 | 1013.3 |
| 20260505174508 | 13 | 314 | 3.2 | 9.7 | 0.00 | 0.10 | 0.03 | 47 | 1013.1 |
| 20260505174003 | 13 | 358 | 3.2 | 11.3 | 0.00 | 0.10 | 0.03 | 49 | 1013.2 |
| 20260505173505 | 13 | 350 | 3.2 | 11.3 | 0.00 | 0.10 | 0.03 | 48 | 1013.3 |
| 20260505173008 | 13 | 333 | 3.2 | 11.3 | 0.00 | 0.10 | 0.03 | 50 | 1013.4 |
| 20260505172504 | 12 | 345 | 3.2 | 11.3 | 0.00 | 0.10 | 0.03 | 48 | 1013.4 |
| 20260505171508 | 12 | 327 | 1.6 | 8.0 | 0.00 | 0.10 | 0.03 | 52 | 1013.6 |
| 20260505171003 | 12 | 356 | 1.6 | 9.7 | 0.00 | 0.10 | 0.03 | 52 | 1013.5 |
| 20260505170008 | 11 | 354 | 3.2 | 9.7 | 0.00 | 0.10 | 0.03 | 53 | 1013.6 |
| 20260505165503 | 11 | 332 | 1.6 | 8.0 | 0.00 | 0.10 | 0.03 | 54 | 1013.8 |
| 20260505165004 | 11 | 323 | 1.6 | 9.7 | 0.00 | 0.10 | 0.03 | 58 | 1013.8 |
| 20260505164508 | 11 | 323 | 3.2 | 9.7 | 0.00 | 0.10 | 0.03 | 58 | 1013.7 |
| 20260505164003 | 11 | 328 | 3.2 | 9.7 | 0.00 | 0.10 | 0.03 | 58 | 1013.7 |
| 20260505163503 | 11 | 332 | 1.6 | 9.7 | 0.00 | 0.10 | 0.03 | 60 | 1013.7 |
| 20260505162003 | 11 | 295 | 0.0 | 4.8 | 0.00 | 0.10 | 0.03 | 63 | 1013.3 |
| 20260505161508 | 10 | 317 | 1.6 | 6.4 | 0.00 | 0.10 | 0.03 | 65 | 1013.2 |
| 20260505161003 | 10 | 316 | 1.6 | 6.4 | 0.00 | 0.10 | 0.03 | 64 | 1013.2 |
| 20260505160505 | 10 | 298 | 1.6 | 6.4 | 0.00 | 0.10 | 0.03 | 65 | 1013.1 |
| 20260505152504 | 9 | 356 | 3.2 | 9.7 | 0.00 | 0.10 | 0.03 | 67 | 1013.1 |
| 20260505152003 | 9 | 339 | 3.2 | 9.7 | 0.00 | 0.10 | 0.03 | 66 | 1013.0 |
| 20260505151508 | 9 | 341 | 3.2 | 9.7 | 0.00 | 0.10 | 0.03 | 66 | 1013.0 |
| 20260505151003 | 9 | 357 | 3.2 | 8.0 | 0.00 | 0.10 | 0.03 | 65 | 1012.9 |
| 20260505150503 | 9 | 355 | 3.2 | 12.9 | 0.00 | 0.10 | 0.03 | 65 | 1012.9 |
| 20260505140503 | 8 | 294 | 0.0 | 6.4 | 0.00 | 0.10 | 0.03 | 68 | 1012.6 |
| 20260505125003 | 8 | 355 | 0.0 | 4.8 | 0.00 | 0.10 | 0.03 | 77 | 1011.6 |
| 20260505124508 | 8 | 356 | 0.0 | 3.2 | 0.00 | 0.10 | 0.03 | 78 | 1011.5 |
| 20260505124003 | 8 | 356 | 0.0 | 3.2 | 0.00 | 0.10 | 0.03 | 79 | 1011.2 |
| 20260505123503 | 8 | 0 | 0.0 | 0.0 | 0.00 | 0.10 | 0.03 | 79 | 1011.1 |
| 20260505123008 | 8 | 0 | 0.0 | 0.0 | 0.00 | 0.10 | 0.03 | 79 | 1011.2 |
| 20260505122503 | 8 | 0 | 0.0 | 0.0 | 0.00 | 0.10 | 0.03 | 78 | 1011.1 |
| 20260505122004 | 8 | 0 | 0.0 | 0.0 | 0.00 | 0.10 | 0.03 | 79 | 1010.9 |
| 20260505121508 | 7 | 0 | 0.0 | 0.0 | 0.00 | 0.10 | 0.03 | 80 | 1010.8 |
| 20260505121003 | 7 | 356 | 0.0 | 1.6 | 0.00 | 0.10 | 0.03 | 80 | 1010.8 |
| 20260505120008 | 7 | 356 | 0.0 | 1.6 | 0.00 | 0.10 | 0.03 | 82 | 1010.6 |
| 20260505115505 | 7 | 0 | 0.0 | 0.0 | 0.00 | 0.10 | 0.03 | 81 | 1010.4 |
| 20260505115003 | 7 | 0 | 0.0 | 0.0 | 0.00 | 0.10 | 0.03 | 81 | 1010.2 |
| 20260505114003 | 7 | 0 | 0.0 | 0.0 | 0.00 | 0.10 | 0.03 | 81 | 1009.9 |
| 20260505113504 | 7 | 0 | 0.0 | 0.0 | 0.00 | 0.10 | 0.03 | 82 | 1010.1 |
| 20260505113009 | 7 | 0 | 0.0 | 0.0 | 0.00 | 0.10 | 0.03 | 84 | 1010.0 |
| 20260505112503 | 7 | 0 | 0.0 | 0.0 | 0.00 | 0.10 | 0.03 | 84 | 1010.0 |
| 20260505112003 | 7 | 0 | 0.0 | 0.0 | 0.00 | 0.10 | 0.03 | 86 | 1010.1 |
| 20260505111510 | 7 | 0 | 0.0 | 0.0 | 0.00 | 0.10 | 0.03 | 88 | 1010.1 |
| 20260505111004 | 7 | 0 | 0.0 | 0.0 | 0.00 | 0.10 | 0.03 | 89 | 1010.1 |
| 20260505110503 | 7 | 0 | 0.0 | 0.0 | 0.00 | 0.10 | 0.03 | 89 | 1010.2 |
| 20260505101508 | 7 | 0 | 0.0 | 0.0 | 0.00 | 0.10 | 0.03 | 88 | 1010.4 |
| 20260505101004 | 7 | 0 | 0.0 | 0.0 | 0.00 | 0.10 | 0.03 | 88 | 1010.4 |
| 20260505100503 | 7 | 0 | 0.0 | 0.0 | 0.00 | 0.10 | 0.03 | 88 | 1010.3 |
| 20260505100008 | 7 | 0 | 0.0 | 0.0 | 0.00 | 0.10 | 0.03 | 88 | 1010.4 |
| 20260505095003 | 8 | 0 | 0.0 | 0.0 | 0.00 | 0.10 | 0.03 | 88 | 1010.4 |
| 20260505094509 | 8 | 0 | 0.0 | 0.0 | 0.00 | 0.10 | 0.03 | 88 | 1010.3 |
| 20260505094004 | 8 | 0 | 0.0 | 0.0 | 0.00 | 0.10 | 0.03 | 88 | 1010.3 |
| 20260505093503 | 8 | 0 | 0.0 | 0.0 | 0.00 | 0.10 | 0.03 | 88 | 1010.2 |
| 20260505093008 | 8 | 356 | 0.0 | 1.6 | 0.00 | 0.10 | 0.03 | 88 | 1010.1 |
| 20260505092503 | 8 | 356 | 0.0 | 1.6 | 0.00 | 0.10 | 0.03 | 88 | 1010.0 |
| 20260505091509 | 8 | 356 | 0.0 | 1.6 | 0.00 | 0.10 | 0.03 | 88 | 1009.5 |
| 20260505091004 | 8 | 0 | 0.0 | 0.0 | 0.00 | 0.10 | 0.03 | 87 | 1009.5 |
| 20260505090503 | 8 | 0 | 0.0 | 0.0 | 0.00 | 0.10 | 0.03 | 87 | 1009.5 |
| 20260505090008 | 8 | 0 | 0.0 | 0.0 | 0.00 | 0.10 | 0.03 | 87 | 1009.6 |
| 20260505085504 | 8 | 0 | 0.0 | 0.0 | 0.00 | 0.10 | 0.03 | 87 | 1009.5 |
| 20260505085003 | 8 | 0 | 0.0 | 0.0 | 0.00 | 0.10 | 0.03 | 87 | 1009.4 |
| 20260505084508 | 8 | 356 | 0.0 | 1.6 | 0.00 | 0.10 | 0.03 | 87 | 1009.4 |
| 20260505084003 | 8 | 356 | 0.0 | 1.6 | 0.00 | 0.10 | 0.03 | 87 | 1009.4 |
| 20260505083504 | 8 | 356 | 0.0 | 1.6 | 0.00 | 0.10 | 0.03 | 87 | 1009.4 |
| 20260505083009 | 8 | 356 | 0.0 | 1.6 | 0.00 | 0.10 | 0.03 | 88 | 1009.5 |
| 20260505082503 | 8 | 0 | 0.0 | 0.0 | 0.00 | 0.10 | 0.03 | 88 | 1009.4 |
| 20260505081508 | 8 | 0 | 0.0 | 0.0 | 0.00 | 0.10 | 0.03 | 88 | 1009.3 |
| 20260505081004 | 8 | 0 | 0.0 | 0.0 | 0.00 | 0.10 | 0.03 | 89 | 1009.2 |
| 20260505080504 | 8 | 0 | 0.0 | 0.0 | 0.00 | 0.10 | 0.03 | 88 | 1008.9 |
| 20260505080008 | 8 | 0 | 0.0 | 0.0 | 0.00 | 0.10 | 0.03 | 88 | 1008.8 |
| 20260505075504 | 8 | 0 | 0.0 | 0.0 | 0.00 | 0.10 | 0.03 | 88 | 1008.7 |
| 20260505075004 | 8 | 356 | 0.0 | 1.6 | 0.00 | 0.10 | 0.03 | 88 | 1008.7 |
| 20260505074510 | 8 | 356 | 0.0 | 1.6 | 0.00 | 0.10 | 0.03 | 87 | 1008.8 |
| 20260505073503 | 8 | 356 | 0.0 | 1.6 | 0.00 | 0.10 | 0.03 | 87 | 1008.7 |
| 20260505073008 | 8 | 356 | 0.0 | 1.6 | 0.00 | 0.10 | 0.03 | 87 | 1008.8 |
| 20260505072504 | 8 | 0 | 0.0 | 0.0 | 0.00 | 0.10 | 0.03 | 87 | 1008.8 |
| 20260505072003 | 8 | 0 | 0.0 | 0.0 | 0.00 | 0.10 | 0.03 | 88 | 1008.8 |
| 20260505071508 | 8 | 0 | 0.0 | 0.0 | 0.00 | 0.10 | 0.03 | 87 | 1008.7 |
| 20260505071003 | 8 | 0 | 0.0 | 0.0 | 0.03 | 0.10 | 0.03 | 87 | 1008.6 |
| 20260505065503 | 8 | 0 | 0.0 | 0.0 | 0.03 | 0.10 | 0.03 | 85 | 1008.7 |
| 20260505065004 | 8 | 0 | 0.0 | 0.0 | 0.03 | 0.10 | 0.03 | 85 | 1008.2 |
| 20260505064004 | 8 | 356 | 0.0 | 1.6 | 0.03 | 0.10 | 0.03 | 84 | 1008.2 |
| 20260505063503 | 8 | 356 | 0.0 | 1.6 | 0.03 | 0.10 | 0.03 | 83 | 1008.4 |
| 20260505063009 | 8 | 356 | 0.0 | 1.6 | 0.03 | 0.10 | 0.03 | 83 | 1008.7 |
| 20260505062503 | 9 | 356 | 0.0 | 1.6 | 0.03 | 0.10 | 0.03 | 82 | 1008.4 |
| 20260505061004 | 9 | 356 | 0.0 | 3.2 | 0.00 | 0.08 | 0.00 | 78 | 1009.2 |
| 20260505060503 | 9 | 356 | 0.0 | 3.2 | 0.00 | 0.08 | 0.00 | 76 | 1009.2 |
| 20260505055503 | 9 | 356 | 0.0 | 1.6 | 0.00 | 0.08 | 0.00 | 76 | 1008.5 |
| 20260505055003 | 10 | 356 | 0.0 | 1.6 | 0.00 | 0.08 | 0.00 | 75 | 1008.7 |
| 20260505054508 | 10 | 356 | 0.0 | 3.2 | 0.05 | 0.08 | 0.00 | 75 | 1008.9 |
| 20260505054005 | 10 | 351 | 1.6 | 6.4 | 0.05 | 0.08 | 0.00 | 74 | 1008.8 |
| 20260505053503 | 10 | 356 | 1.6 | 6.4 | 0.05 | 0.08 | 0.00 | 73 | 1008.8 |
| 20260505053008 | 10 | 7 | 1.6 | 6.4 | 0.05 | 0.08 | 0.00 | 73 | 1009.0 |
| 20260505052503 | 9 | 13 | 1.6 | 6.4 | 0.08 | 0.08 | 0.00 | 74 | 1008.8 |
| 20260505052003 | 9 | 15 | 1.6 | 6.4 | 0.08 | 0.08 | 0.00 | 74 | 1008.2 |
| 20260505051508 | 9 | 15 | 1.6 | 6.4 | 0.08 | 0.08 | 0.00 | 73 | 1008.2 |
| 20260505051003 | 9 | 16 | 0.0 | 4.8 | 0.08 | 0.08 | 0.00 | 74 | 1008.4 |
| 20260505041508 | 12 | 354 | 4.8 | 12.9 | 0.00 | 0.00 | 0.00 | 54 | 1009.3 |
| 20260505041004 | 12 | 10 | 4.8 | 12.9 | 0.00 | 0.00 | 0.00 | 51 | 1009.1 |
| 20260505040503 | 12 | 16 | 4.8 | 12.9 | 0.00 | 0.00 | 0.00 | 50 | 1009.0 |
| 20260505040008 | 13 | 11 | 4.8 | 17.7 | 0.00 | 0.00 | 0.00 | 48 | 1009.0 |
| 20260505035005 | 13 | 1 | 6.4 | 19.3 | 0.00 | 0.00 | 0.00 | 48 | 1008.6 |
| 20260505034508 | 13 | 1 | 6.4 | 14.5 | 0.00 | 0.00 | 0.00 | 48 | 1008.4 |
| 20260505034004 | 13 | 3 | 4.8 | 16.1 | 0.00 | 0.00 | 0.00 | 47 | 1008.4 |
| 20260505033504 | 13 | 11 | 4.8 | 17.7 | 0.00 | 0.00 | 0.00 | 47 | 1008.2 |
| 20260505033009 | 13 | 18 | 4.8 | 17.7 | 0.00 | 0.00 | 0.00 | 48 | 1008.3 |
| 20260505032503 | 13 | 24 | 6.4 | 17.7 | 0.00 | 0.00 | 0.00 | 47 | 1007.8 |
| 20260505032003 | 13 | 25 | 6.4 | 17.7 | 0.00 | 0.00 | 0.00 | 46 | 1007.9 |
| 20260505031508 | 13 | 27 | 8.0 | 17.7 | 0.00 | 0.00 | 0.00 | 46 | 1008.1 |
| 20260505031003 | 13 | 17 | 8.0 | 22.5 | 0.00 | 0.00 | 0.00 | 46 | 1008.1 |
| 20260505030503 | 13 | 11 | 8.0 | 22.5 | 0.00 | 0.00 | 0.00 | 46 | 1008.1 |
| 20260505030008 | 13 | 20 | 6.4 | 19.3 | 0.00 | 0.00 | 0.00 | 47 | 1007.8 |
| 20260505025503 | 13 | 13 | 6.4 | 17.7 | 0.00 | 0.00 | 0.00 | 48 | 1007.6 |
| 20260505025004 | 13 | 11 | 6.4 | 29.0 | 0.00 | 0.00 | 0.00 | 47 | 1007.7 |
| 20260505024508 | 13 | 16 | 6.4 | 29.0 | 0.00 | 0.00 | 0.00 | 47 | 1007.5 |
| 20260505024004 | 13 | 13 | 8.0 | 27.4 | 0.00 | 0.00 | 0.00 | 47 | 1007.7 |
| 20260505023504 | 13 | 20 | 9.7 | 22.5 | 0.00 | 0.00 | 0.00 | 46 | 1007.2 |
| 20260505023008 | 13 | 22 | 9.7 | 22.5 | 0.00 | 0.00 | 0.00 | 46 | 1006.9 |
| 20260505022504 | 14 | 23 | 8.0 | 22.5 | 0.00 | 0.00 | 0.00 | 46 | 1006.9 |
| 20260505022003 | 14 | 22 | 8.0 | 20.9 | 0.00 | 0.00 | 0.00 | 46 | 1006.9 |
| 20260505021508 | 14 | 9 | 8.0 | 27.4 | 0.00 | 0.00 | 0.00 | 46 | 1006.9 |
| 20260505021003 | 14 | 17 | 9.7 | 27.4 | 0.00 | 0.00 | 0.00 | 46 | 1006.8 |
| 20260505020503 | 14 | 22 | 9.7 | 30.6 | 0.00 | 0.00 | 0.00 | 47 | 1006.6 |
| 20260505020008 | 14 | 15 | 8.0 | 30.6 | 0.00 | 0.00 | 0.00 | 47 | 1006.8 |
| 20260505015503 | 15 | 18 | 9.7 | 33.8 | 0.00 | 0.00 | 0.00 | 47 | 1006.7 |
| 20260505015004 | 15 | 17 | 11.3 | 33.8 | 0.00 | 0.00 | 0.00 | 47 | 1006.8 |
| 20260505013503 | 15 | 29 | 8.0 | 29.0 | 0.00 | 0.00 | 0.00 | 44 | 1006.1 |
| 20260505013008 | 16 | 22 | 8.0 | 29.0 | 0.00 | 0.00 | 0.00 | 44 | 1006.0 |
| 20260505012504 | 16 | 23 | 9.7 | 25.7 | 0.00 | 0.00 | 0.00 | 43 | 1005.8 |
| 20260505012004 | 16 | 17 | 9.7 | 32.2 | 0.00 | 0.00 | 0.00 | 43 | 1005.9 |
| 20260505011508 | 16 | 13 | 9.7 | 32.2 | 0.00 | 0.00 | 0.00 | 42 | 1005.7 |
| 20260505011003 | 16 | 26 | 8.0 | 27.4 | 0.00 | 0.00 | 0.00 | 42 | 1005.8 |
| 20260505010504 | 16 | 26 | 9.7 | 29.0 | 0.00 | 0.00 | 0.00 | 41 | 1005.7 |
| 20260505010009 | 17 | 16 | 9.7 | 29.0 | 0.00 | 0.00 | 0.00 | 41 | 1005.7 |
| 20260505005503 | 17 | 11 | 11.3 | 29.0 | 0.00 | 0.00 | 0.00 | 40 | 1005.6 |
| 20260505005004 | 17 | 14 | 11.3 | 27.4 | 0.00 | 0.00 | 0.00 | 39 | 1005.4 |
| 20260505004004 | 18 | 13 | 6.4 | 24.1 | 0.00 | 0.00 | 0.00 | 38 | 1005.4 |
| 20260505003503 | 18 | 14 | 6.4 | 24.1 | 0.00 | 0.00 | 0.00 | 38 | 1005.2 |
| 20260505003008 | 18 | 16 | 9.7 | 29.0 | 0.00 | 0.00 | 0.00 | 38 | 1005.2 |
| 20260505002505 | 19 | 16 | 12.9 | 30.6 | 0.00 | 0.00 | 0.00 | 37 | 1005.0 |
| 20260505002004 | 20 | 18 | 11.3 | 30.6 | 0.00 | 0.00 | 0.00 | 37 | 1004.9 |
| 20260505001508 | 20 | 14 | 11.3 | 32.2 | 0.00 | 0.00 | 0.00 | 37 | 1004.7 |
| 20260505001004 | 20 | 9 | 11.3 | 32.2 | 0.00 | 0.00 | 0.00 | 36 | 1004.8 |
| 20260505000503 | 20 | 9 | 9.7 | 22.5 | 0.00 | 0.00 | 0.00 | 36 | 1004.7 |
| 20260505000008 | 20 | 8 | 8.0 | 22.5 | 0.00 | 0.00 | 0.00 | 36 | 1004.5 |